Location: Lombard
(41.8800°N, 88.0080°W)
Time: 05:05:59
(UTC-05:00)

Vanguard 2 Rocket - Pass Details

Date: 02 March 2024
Orbit: 555 x 3307 km, 32.9° (Epoch: 12 April)

Event Time Altitude Azimuth Distance (km) Brightness Sun altitude
Rises 12:14:04 0° 228° (SW) 3,259 10.3 41.3°
Reaches altitude 10° 12:16:19 10° 217° (SW) 2,552 10.0 41.2°
Maximum altitude 12:21:46 33° 154° (SSE) 1,904 9.9 41.1°
Drops below altitude 10° 12:30:27 10° 96° (E) 4,140 10.3 40.9°
Sets 12:35:13 0° 89° (E) 5,638 10.9 40.8°
